Starlink 33844

operational
NORAD ID: 63768 Int'l Des: 2025-089 Owner: SPXS Country: US Constellation: starlink
LEOCIRCULAR

Über Starlink 33844

Beschreibung wird geladen...

Live-Position

3D-Globus wird geladen...

Nächste Überflüge

Höhenverlauf

Altitude vs Time

uPlot chart will show altitude changes over time

Zweizeiliger Elementsatz

1 63768U 25089T 25260.17469701 .00012963 00000-0 48033-3 0 9996
2 63768 43.0030 304.9019 0001435 265.0163 95.0525 15.27540600 22420
Epoch: 17. Sept. 2025 • Age: 24 hours

Aktueller Status

Höhe 486.9 km
Geschwindigkeit 7.63 km/s
Subsatellitenpunkt 41.84°N, 13.5°W
Startdatum 29. Apr. 2025
Alter 0.3 years
Typ internet

Technische Details

Klassifizierung Payload
Masse 575.00 kg
Trockenmasse 530.00 kg
Gesamtmasse 575.00 kg
Länge 0.30 m
Durchmesser 4.10 m
Spannweite 29.00 m
Form Box + pan
Hersteller SPXS
Bus-Typ Starlink V2MO
Phasenstatus In Orbit
Besitzer/Staat SPXS/US

Große Konstellationen

Loading constellations...